Time,TemperatureF,DewpointF,PressureIn,WindDirection,WindDirectionDegrees,WindSpeedMPH,WindSpeedGustMPH,Humidity,HourlyPrecipIn,Conditions,Clouds,dailyrainin,SoftwareType,DateUTC
2013-02-16 00:02:00,25.0,22.0,30.15,WNW,290,0.0,1.0,89,0.00,,,0.00,,2013-02-16 05:02:00,
2013-02-16 00:12:00,25.0,22.0,30.15,WNW,290,0.0,1.0,89,0.00,,,0.00,,2013-02-16 05:12:00,
2013-02-16 00:22:00,25.0,21.0,30.15,NNW,340,0.0,2.0,86,0.00,,,0.00,,2013-02-16 05:22:00,
2013-02-16 00:32:00,24.0,20.0,30.15,NNW,335,0.0,1.0,86,0.00,,,0.00,,2013-02-16 05:32:00,
2013-02-16 00:42:00,24.0,20.0,30.15,NNW,335,0.0,1.0,86,0.00,,,0.00,,2013-02-16 05:42:00,
2013-02-16 00:52:00,24.0,20.0,30.15,NNW,333,1.0,2.0,85,0.00,,,0.00,,2013-02-16 05:52:00,
2013-02-16 01:02:00,24.0,20.0,30.14,NNW,330,0.0,1.0,85,0.00,,,0.00,,2013-02-16 06:02:00,
2013-02-16 01:11:00,24.0,20.0,30.14,NNW,330,0.0,1.0,85,0.00,,,0.00,,2013-02-16 06:11:00,
2013-02-16 01:21:00,23.0,19.0,30.14,NNW,330,0.0,1.0,85,0.00,,,0.00,,2013-02-16 06:21:00,
2013-02-16 01:32:00,23.0,19.0,30.14,NNW,329,0.0,1.0,86,0.00,,,0.00,,2013-02-16 06:32:00,
2013-02-16 01:42:00,23.0,19.0,30.14,NNW,329,0.0,1.0,86,0.00,,,0.00,,2013-02-16 06:42:00,
2013-02-16 01:52:00,22.0,19.0,30.14,NNW,329,0.0,0.0,87,0.00,,,0.00,,2013-02-16 06:52:00,
2013-02-16 02:02:00,22.0,19.0,30.14,NNW,330,0.0,0.0,88,0.00,,,0.00,,2013-02-16 07:02:00,
2013-02-16 02:11:00,22.0,19.0,30.14,NNW,330,0.0,0.0,88,0.00,,,0.00,,2013-02-16 07:11:00,
2013-02-16 02:21:00,22.0,19.0,30.13,NW,323,0.0,0.0,87,0.00,,,0.00,,2013-02-16 07:21:00,
2013-02-16 02:32:00,22.0,19.0,30.13,WNW,288,0.0,1.0,88,0.00,,,0.00,,2013-02-16 07:32:00,
2013-02-16 02:42:00,22.0,19.0,30.13,WNW,288,0.0,1.0,88,0.00,,,0.00,,2013-02-16 07:42:00,
2013-02-16 02:53:00,22.0,19.0,30.13,WNW,283,0.0,1.0,87,0.00,,,0.00,,2013-02-16 07:53:00,
2013-02-16 03:01:00,22.0,19.0,30.13,WNW,294,1.0,2.0,87,0.00,,,0.00,,2013-02-16 08:01:00,
2013-02-16 03:11:00,22.0,19.0,30.13,WNW,294,1.0,2.0,87,0.00,,,0.00,,2013-02-16 08:11:00,
2013-02-16 03:21:00,22.0,19.0,30.13,WNW,294,1.0,2.0,87,0.00,,,0.00,,2013-02-16 08:21:00,
2013-02-16 03:31:00,22.0,19.0,30.13,WNW,294,1.0,2.0,87,0.00,,,0.00,,2013-02-16 08:31:00,
2013-02-16 03:42:00,22.0,19.0,30.13,WNW,294,1.0,2.0,87,0.00,,,0.00,,2013-02-16 08:42:00,
2013-02-16 03:52:00,22.0,19.0,30.11,NW,305,0.0,1.0,89,0.00,,,0.00,,2013-02-16 08:52:00,
2013-02-16 04:02:00,21.0,18.0,30.11,NW,306,0.0,0.0,89,0.00,,,0.00,,2013-02-16 09:02:00,
2013-02-16 04:11:00,21.0,18.0,30.11,NW,306,0.0,0.0,89,0.00,,,0.00,,2013-02-16 09:11:00,
2013-02-16 04:21:00,21.0,19.0,30.10,NW,305,0.0,0.0,91,0.00,,,0.00,,2013-02-16 09:21:00,
2013-02-16 04:32:00,20.0,18.0,30.10,NW,306,0.0,0.0,90,0.00,,,0.00,,2013-02-16 09:32:00,
2013-02-16 04:42:00,20.0,18.0,30.10,NW,306,0.0,0.0,90,0.00,,,0.00,,2013-02-16 09:42:00,
2013-02-16 04:52:00,20.0,18.0,30.10,NW,306,0.0,0.0,90,0.00,,,0.00,,2013-02-16 09:52:00,
2013-02-16 05:01:00,20.0,18.0,30.10,NW,306,0.0,0.0,90,0.00,,,0.00,,2013-02-16 10:01:00,
2013-02-16 05:11:00,20.0,18.0,30.10,NW,306,0.0,0.0,91,0.00,,,0.00,,2013-02-16 10:11:00,
2013-02-16 05:21:00,20.0,18.0,30.10,NW,306,0.0,0.0,91,0.00,,,0.00,,2013-02-16 10:21:00,
2013-02-16 05:32:00,20.0,18.0,30.10,NW,306,0.0,0.0,92,0.00,,,0.00,,2013-02-16 10:32:00,
2013-02-16 05:42:00,20.0,18.0,30.10,NW,306,0.0,0.0,92,0.00,,,0.00,,2013-02-16 10:42:00,
2013-02-16 05:52:00,20.0,18.0,30.10,NW,306,0.0,0.0,92,0.00,,,0.00,,2013-02-16 10:52:00,
2013-02-16 06:02:00,20.0,18.0,30.10,NW,306,0.0,0.0,92,0.00,,,0.00,,2013-02-16 11:02:00,
2013-02-16 06:11:00,20.0,18.0,30.10,NW,306,0.0,0.0,92,0.00,,,0.00,,2013-02-16 11:11:00,
2013-02-16 06:22:00,20.0,18.0,30.09,NW,306,0.0,0.0,92,0.00,,,0.00,,2013-02-16 11:22:00,
2013-02-16 06:32:00,20.0,18.0,30.09,NW,306,0.0,0.0,91,0.00,,,0.00,,2013-02-16 11:32:00,
2013-02-16 06:42:00,20.0,18.0,30.09,NW,306,0.0,0.0,91,0.00,,,0.00,,2013-02-16 11:42:00,
2013-02-16 06:52:00,20.0,18.0,30.09,West,267,0.0,0.0,91,0.00,,,0.00,,2013-02-16 11:52:00,
2013-02-16 07:02:00,20.0,18.0,30.09,West,267,0.0,0.0,91,0.00,,,0.00,,2013-02-16 12:02:00,
2013-02-16 07:12:00,20.0,18.0,30.09,West,267,0.0,0.0,91,0.00,,,0.00,,2013-02-16 12:12:00,
2013-02-16 07:22:00,20.0,18.0,30.09,West,267,0.0,0.0,91,0.00,,,0.00,,2013-02-16 12:22:00,
2013-02-16 07:32:00,20.0,18.0,30.09,West,267,0.0,0.0,91,0.00,,,0.00,,2013-02-16 12:32:00,
2013-02-16 07:52:00,21.0,19.0,30.09,SSE,158,0.0,2.0,91,0.00,,,0.00,,2013-02-16 12:52:00,
2013-02-16 08:02:00,21.0,19.0,30.09,WNW,285,1.0,3.0,91,0.00,,,0.00,,2013-02-16 13:02:00,
2013-02-16 08:12:00,21.0,19.0,30.09,SSW,212,0.0,2.0,91,0.00,,,0.00,,2013-02-16 13:12:00,
2013-02-16 08:21:00,21.0,19.0,30.09,SSW,212,0.0,2.0,91,0.00,,,0.00,,2013-02-16 13:21:00,
2013-02-16 08:32:00,22.0,20.0,30.09,WNW,285,2.0,3.0,91,0.00,,,0.00,,2013-02-16 13:32:00,
2013-02-16 08:41:00,22.0,20.0,30.09,WNW,285,2.0,3.0,91,0.00,,,0.00,,2013-02-16 13:41:00,
2013-02-16 08:52:00,22.0,20.0,30.09,WNW,289,2.0,5.0,90,0.00,,,0.00,,2013-02-16 13:52:00,
2013-02-16 09:01:00,23.0,20.0,30.09,West,276,3.0,6.0,87,0.00,,,0.00,,2013-02-16 14:01:00,
2013-02-16 09:11:00,23.0,20.0,30.09,West,276,3.0,6.0,87,0.00,,,0.00,,2013-02-16 14:11:00,
2013-02-16 09:21:00,23.0,19.0,30.09,NW,305,2.0,8.0,86,0.00,,,0.00,,2013-02-16 14:21:00,
2013-02-16 09:32:00,23.0,19.0,30.09,NNW,328,1.0,5.0,86,0.00,,,0.00,,2013-02-16 14:32:00,
2013-02-16 09:42:00,23.0,19.0,30.09,NNW,328,1.0,5.0,86,0.00,,,0.00,,2013-02-16 14:42:00,
2013-02-16 09:52:00,24.0,19.0,30.08,WNW,302,4.0,8.0,82,0.00,,,0.00,,2013-02-16 14:52:00,
2013-02-16 10:02:00,24.0,19.0,30.08,NW,307,3.0,7.0,80,0.00,,,0.00,,2013-02-16 15:02:00,
2013-02-16 10:11:00,24.0,19.0,30.08,NW,307,3.0,7.0,80,0.00,,,0.00,,2013-02-16 15:11:00,
2013-02-16 10:22:00,24.0,19.0,30.08,NW,307,3.0,7.0,80,0.00,,,0.00,,2013-02-16 15:22:00,
2013-02-16 10:32:00,26.0,19.0,30.08,WSW,257,4.0,6.0,75,0.00,,,0.00,,2013-02-16 15:32:00,
2013-02-16 10:42:00,26.0,19.0,30.08,WSW,257,4.0,6.0,75,0.00,,,0.00,,2013-02-16 15:42:00,
2013-02-16 10:52:00,27.0,20.0,30.07,WNW,287,4.0,9.0,74,0.00,,,0.00,,2013-02-16 15:52:00,
2013-02-16 11:01:00,27.0,20.0,30.07,WNW,287,4.0,9.0,74,0.00,,,0.00,,2013-02-16 16:01:00,
2013-02-16 11:11:00,27.0,20.0,30.07,WNW,287,4.0,9.0,74,0.00,,,0.00,,2013-02-16 16:11:00,
2013-02-16 11:21:00,26.0,19.0,30.07,WNW,290,3.0,10.0,76,0.00,,,0.00,,2013-02-16 16:21:00,
2013-02-16 11:32:00,26.0,19.0,30.07,WNW,282,4.0,11.0,76,0.00,,,0.00,,2013-02-16 16:32:00,
2013-02-16 11:42:00,26.0,19.0,30.07,WNW,282,4.0,11.0,76,0.00,,,0.00,,2013-02-16 16:42:00,
2013-02-16 11:52:00,25.0,19.0,30.07,NNW,327,3.0,10.0,76,0.00,,,0.00,,2013-02-16 16:52:00,
2013-02-16 12:01:00,25.0,19.0,30.07,NNW,327,3.0,10.0,76,0.00,,,0.00,,2013-02-16 17:01:00,
2013-02-16 12:11:00,25.0,19.0,30.07,NNW,327,3.0,10.0,76,0.00,,,0.00,,2013-02-16 17:11:00,
2013-02-16 12:22:00,25.0,19.0,30.07,NNW,327,3.0,10.0,76,0.00,,,0.00,,2013-02-16 17:22:00,
2013-02-16 12:32:00,26.0,18.0,30.07,WNW,282,2.0,13.0,70,0.00,,,0.00,,2013-02-16 17:32:00,
2013-02-16 12:42:00,26.0,18.0,30.07,WNW,282,2.0,13.0,70,0.00,,,0.00,,2013-02-16 17:42:00,
2013-02-16 12:52:00,26.0,18.0,30.07,WNW,282,2.0,13.0,70,0.00,,,0.00,,2013-02-16 17:52:00,
2013-02-16 13:02:00,26.0,15.0,30.05,NW,313,6.0,14.0,63,0.00,,,0.00,,2013-02-16 18:02:00,
2013-02-16 13:11:00,26.0,15.0,30.05,NW,313,6.0,14.0,63,0.00,,,0.00,,2013-02-16 18:11:00,
2013-02-16 13:22:00,26.0,15.0,30.05,NW,313,6.0,14.0,63,0.00,,,0.00,,2013-02-16 18:22:00,
2013-02-16 13:33:00,26.0,15.0,30.05,NW,313,6.0,14.0,63,0.00,,,0.00,,2013-02-16 18:33:00,
2013-02-16 13:42:00,26.0,15.0,30.05,NW,313,6.0,14.0,63,0.00,,,0.00,,2013-02-16 18:42:00,
2013-02-16 14:22:00,27.0,15.0,30.03,NW,319,5.0,10.0,61,0.00,,,0.00,,2013-02-16 19:22:00,
2013-02-16 14:32:00,26.0,15.0,30.03,NNW,345,9.0,16.0,62,0.00,,,0.00,,2013-02-16 19:32:00,
2013-02-16 14:42:00,26.0,15.0,30.03,NNW,345,9.0,16.0,62,0.00,,,0.00,,2013-02-16 19:42:00,
2013-02-16 14:52:00,28.0,16.0,30.03,West,265,4.0,10.0,60,0.00,,,0.00,,2013-02-16 19:52:00,
2013-02-16 15:01:00,27.0,14.0,30.03,West,264,5.0,14.0,57,0.00,,,0.00,,2013-02-16 20:01:00,
2013-02-16 15:11:00,27.0,13.0,30.03,WNW,283,6.0,10.0,55,0.00,,,0.00,,2013-02-16 20:11:00,
2013-02-16 15:21:00,27.0,13.0,30.03,WNW,283,6.0,10.0,55,0.00,,,0.00,,2013-02-16 20:21:00,
2013-02-16 15:32:00,26.0,14.0,30.03,WNW,290,7.0,17.0,59,0.00,,,0.00,,2013-02-16 20:32:00,
2013-02-16 15:42:00,26.0,14.0,30.03,WNW,290,7.0,17.0,59,0.00,,,0.00,,2013-02-16 20:42:00,
2013-02-16 15:52:00,26.0,13.0,30.03,WNW,286,4.0,9.0,57,0.00,,,0.00,,2013-02-16 20:52:00,
2013-02-16 16:02:00,26.0,13.0,30.03,WNW,286,4.0,9.0,57,0.00,,,0.00,,2013-02-16 21:02:00,
2013-02-16 16:11:00,26.0,13.0,30.03,WNW,286,4.0,9.0,57,0.00,,,0.00,,2013-02-16 21:11:00,
2013-02-16 16:21:00,26.0,13.0,30.04,NW,326,4.0,14.0,57,0.00,,,0.00,,2013-02-16 21:21:00,
2013-02-16 16:32:00,25.0,13.0,30.05,NNW,327,6.0,13.0,61,0.00,,,0.00,,2013-02-16 21:32:00,
2013-02-16 16:42:00,25.0,13.0,30.05,NNW,327,6.0,13.0,61,0.00,,,0.00,,2013-02-16 21:42:00,
2013-02-16 16:52:00,25.0,14.0,30.06,NW,305,8.0,13.0,62,0.00,,,0.00,,2013-02-16 21:52:00,
2013-02-16 17:01:00,25.0,13.0,30.06,WNW,286,5.0,16.0,60,0.00,,,0.00,,2013-02-16 22:01:00,
2013-02-16 17:11:00,25.0,13.0,30.06,WNW,286,5.0,16.0,60,0.00,,,0.00,,2013-02-16 22:11:00,
2013-02-16 17:21:00,25.0,13.0,30.06,WNW,286,5.0,16.0,60,0.00,,,0.00,,2013-02-16 22:21:00,
2013-02-16 17:32:00,24.0,14.0,30.07,WNW,302,7.0,14.0,64,0.00,,,0.00,,2013-02-16 22:32:00,
2013-02-16 17:42:00,24.0,14.0,30.07,WNW,302,7.0,14.0,64,0.00,,,0.00,,2013-02-16 22:42:00,
2013-02-16 17:52:00,24.0,13.0,30.07,NW,306,4.0,12.0,63,0.00,,,0.00,,2013-02-16 22:52:00,
2013-02-16 18:02:00,24.0,13.0,30.08,West,279,2.0,13.0,63,0.00,,,0.00,,2013-02-16 23:02:00,
2013-02-16 18:11:00,23.0,13.0,30.08,NNW,335,3.0,7.0,64,0.00,,,0.00,,2013-02-16 23:11:00,
2013-02-16 18:21:00,23.0,13.0,30.08,NNW,335,3.0,7.0,64,0.00,,,0.00,,2013-02-16 23:21:00,
2013-02-16 18:32:00,23.0,13.0,30.09,WNW,298,5.0,10.0,65,0.00,,,0.00,,2013-02-16 23:32:00,
2013-02-16 18:42:00,23.0,13.0,30.09,WNW,298,5.0,10.0,65,0.00,,,0.00,,2013-02-16 23:42:00,
2013-02-16 18:52:00,22.0,12.0,30.09,NNW,331,5.0,13.0,64,0.00,,,0.00,,2013-02-16 23:52:00,
2013-02-16 19:02:00,22.0,12.0,30.09,NNW,347,3.0,8.0,65,0.00,,,0.00,,2013-02-17 00:02:00,
2013-02-16 19:12:00,22.0,12.0,30.09,NNW,347,3.0,8.0,65,0.00,,,0.00,,2013-02-17 00:12:00,
2013-02-16 19:22:00,22.0,13.0,30.10,NW,313,4.0,16.0,69,0.00,,,0.00,,2013-02-17 00:22:00,
2013-02-16 19:32:00,22.0,12.0,30.10,WNW,300,5.0,10.0,66,0.00,,,0.00,,2013-02-17 00:32:00,
2013-02-16 19:42:00,22.0,12.0,30.10,WNW,300,5.0,10.0,66,0.00,,,0.00,,2013-02-17 00:42:00,
2013-02-16 19:52:00,21.0,11.0,30.10,NNW,334,2.0,8.0,66,0.00,,,0.00,,2013-02-17 00:52:00,
2013-02-16 20:01:00,21.0,11.0,30.11,NW,309,3.0,9.0,65,0.00,,,0.00,,2013-02-17 01:01:00,
2013-02-16 20:11:00,21.0,11.0,30.11,NW,309,3.0,9.0,65,0.00,,,0.00,,2013-02-17 01:11:00,
2013-02-16 20:21:00,21.0,11.0,30.11,West,281,6.0,15.0,66,0.00,,,0.00,,2013-02-17 01:21:00,
2013-02-16 20:31:00,21.0,12.0,30.11,NW,317,3.0,8.0,68,0.00,,,0.00,,2013-02-17 01:31:00,
2013-02-16 20:41:00,21.0,12.0,30.11,NW,317,3.0,8.0,68,0.00,,,0.00,,2013-02-17 01:41:00,
2013-02-16 20:52:00,21.0,12.0,30.11,NW,317,3.0,8.0,68,0.00,,,0.00,,2013-02-17 01:52:00,
2013-02-16 21:01:00,21.0,12.0,30.11,NW,317,3.0,8.0,68,0.00,,,0.00,,2013-02-17 02:01:00,
2013-02-16 21:11:00,21.0,12.0,30.11,NW,317,3.0,8.0,68,0.00,,,0.00,,2013-02-17 02:11:00,
2013-02-16 21:21:00,20.0,12.0,30.12,NNW,333,4.0,15.0,72,0.00,,,0.00,,2013-02-17 02:21:00,
2013-02-16 21:32:00,20.0,13.0,30.12,NW,324,2.0,8.0,73,0.00,,,0.00,,2013-02-17 02:32:00,
2013-02-16 21:42:00,20.0,13.0,30.12,NW,324,2.0,8.0,73,0.00,,,0.00,,2013-02-17 02:42:00,
2013-02-16 21:52:00,20.0,13.0,30.13,West,281,2.0,7.0,74,0.00,,,0.00,,2013-02-17 02:52:00,
2013-02-16 22:02:00,20.0,12.0,30.13,WNW,297,2.0,6.0,71,0.00,,,0.00,,2013-02-17 03:02:00,
2013-02-16 22:11:00,20.0,12.0,30.13,WNW,297,2.0,6.0,71,0.00,,,0.00,,2013-02-17 03:11:00,
2013-02-16 22:21:00,20.0,12.0,30.13,WNW,297,2.0,6.0,71,0.00,,,0.00,,2013-02-17 03:21:00,
2013-02-16 22:31:00,20.0,12.0,30.13,WNW,297,2.0,6.0,71,0.00,,,0.00,,2013-02-17 03:31:00,
2013-02-16 22:42:00,20.0,12.0,30.13,WNW,297,2.0,6.0,71,0.00,,,0.00,,2013-02-17 03:42:00,
2013-02-16 23:32:00,19.0,10.0,30.13,WNW,302,3.0,5.0,68,0.00,,,0.00,,2013-02-17 04:32:00,
2013-02-16 23:42:00,19.0,10.0,30.13,WNW,302,3.0,5.0,68,0.00,,,0.00,,2013-02-17 04:42:00,
2013-02-16 23:52:00,19.0,10.0,30.12,NW,305,2.0,5.0,68,0.00,,,0.00,,2013-02-17 04:52:00,